Location: Unspecified
(51.5147°N, 7.4673°E)
Time: 06:01:17
(UTC+01:00)

A-11 Canister half - Pass Details

Date: 17 February 2026
Orbit: 1524 x 1683 km, 47.3° (Epoch: 14 March)

Event Time Altitude Azimuth Distance (km) Brightness Sun altitude
Rises 20:29:49 0° 269° (W) 4,685 12.8 -25.5°
Reaches altitude 10° 20:32:53 10° 267° (W) 3,696 11.9 -26.0°
Maximum altitude 20:42:03 68° 188° (S) 1,630 9.0 -27.4°
Enters shadow 20:44:43 49° 128° (SE) 1,900 9.0 -27.8°
